Grand Junction, CO

12:43 PM MST on November 13, 2019 (GMT -0700)
Walker

Weather History for KGJT - September, 2019

Change the Weather History Date:

Saturday, September 28, 2019

  Actual Average Record
Temperature  
Mean Temperature 71 °F 61 °F  
Max Temperature 86 °F 75 °F 89 °F (2001)
Min Temperature 55 °F 47 °F 33 °F (1999)
Degree Days  
Heating Degree Days 0 5  
Month to date heating degree days 30 60  
Since 1 July heating degree days 30 63  
Cooling Degree Days 6 1  
Month to date cooling degree days 157 101  
Year to date cooling degree days 1278 1120  
Growing Degree Days 20 (Base 50)    
Moisture  
Dew Point 42 °F    
Average Humidity 50    
Maximum Humidity 83    
Minimum Humidity 17    
Precipitation  
Precipitation T in 0.04 in 0.81 in (2014)
Month to date precipitation 0.26 1.11  
Year to date precipitation 7.12 6.96  
Snow  
Snow 0.00 in 0.00 in 0.00 in (2018)
Month to date snowfall 0.0 0.0  
Since 1 July snowfall 0.0 0.0  
Since 1 September snowfall 0.0 0.0  
Snow Depth 0.00 in    
Sea Level Pressure  
Sea Level Pressure 29.51 in    
Wind  
Wind Speed 15 mph (SSE)    
Max Wind Speed 33 mph    
Max Gust Speed 47 mph    
Visibility 10 miles    
Events Rain    
T = Trace of Precipitation, MM = Missing Value Source: NWS Daily Summary

Daily Weather History Graph

Daily Weather History Graph

Search for Another Location

Airport or City:

Astronomy

Sep. 28, 2019 Rise Set
Actual Time 7:07 AM MDT 7:01 PM MDT
Civil Twilight 6:40 AM MDT 7:28 PM MDT
Nautical Twilight 6:09 AM MDT 7:59 PM MDT
Astronomical Twilight 5:38 AM MDT 8:30 PM MDT
Moon 6:48 AM MDT (9/28) 7:29 PM MDT (9/28)
Length of Visible Light 12h 47m
Length of Day
11h 54m
Waning Crescent, 0% of the Moon is Illuminated
Sep 28
Waning Crescent
Sep 28
New
Oct 5
First Quarter
Oct 13
Full
Oct 21
Last Quarter

Hourly Weather History & Observations

Time (MDT) Temp. Dew Point Humidity Pressure Visibility Wind Dir Wind Speed Gust Speed Precip Events Conditions
12:53 AM 63.0 °F 48.9 °F 60% 29.57 in 10.0 mi NNE 16.1 mph 25.3 mph 0.00 in Rain Light Rain
1:03 AM 62.1 °F 50.0 °F 65% 29.77 in 10.0 mi NNE 10.4 mph 21.9 mph 0.00 in Rain Light Rain
1:53 AM 62.1 °F 51.1 °F 67% 29.59 in 10.0 mi Calm Calm - 0.00 in   Partly Cloudy
2:53 AM 55.0 °F 50.0 °F 83% 29.59 in 10.0 mi ESE 4.6 mph - N/A   Clear
3:53 AM 55.9 °F 48.9 °F 77% 29.57 in 10.0 mi ESE 9.2 mph - N/A   Clear
4:53 AM 59.0 °F 48.0 °F 67% 29.55 in 10.0 mi East 11.5 mph - N/A   Clear
5:53 AM 60.1 °F 46.9 °F 62% 29.57 in 10.0 mi ESE 3.5 mph - N/A   Clear
6:53 AM 55.0 °F 46.0 °F 72% 29.60 in 10.0 mi ESE 9.2 mph - N/A   Clear
7:53 AM 60.1 °F 46.9 °F 62% 29.59 in 10.0 mi ESE 11.5 mph - N/A   Clear
8:53 AM 66.9 °F 46.9 °F 49% 29.58 in 10.0 mi SE 15.0 mph - N/A   Clear
9:53 AM 73.0 °F 46.0 °F 38% 29.56 in 10.0 mi SE 16.1 mph 23.0 mph N/A   Clear
10:53 AM 75.9 °F 45.0 °F 33% 29.54 in 10.0 mi SSE 19.6 mph - N/A   Clear
11:48 AM 80.6 °F 42.8 °F 26% 29.73 in 10.0 mi South 19.6 mph 29.9 mph N/A   Scattered Clouds
11:53 AM 82.0 °F 43.0 °F 25% 29.52 in 10.0 mi SSW 15.0 mph 26.5 mph N/A   Scattered Clouds
12:53 PM 82.0 °F 42.1 °F 24% 29.49 in 10.0 mi SSW 17.3 mph 32.2 mph N/A   Clear
1:53 PM 84.0 °F 39.9 °F 21% 29.46 in 10.0 mi South 17.3 mph 36.8 mph N/A   Clear
2:53 PM 86.0 °F 39.0 °F 19% 29.45 in 10.0 mi South 19.6 mph 38.0 mph N/A   Clear
3:53 PM 84.0 °F 37.0 °F 19% 29.45 in 10.0 mi South 23.0 mph 42.6 mph N/A   Clear
4:53 PM 84.0 °F 36.0 °F 18% 29.42 in 10.0 mi South 32.2 mph 43.7 mph N/A   Clear
5:53 PM 82.0 °F 37.0 °F 20% 29.41 in 10.0 mi SSW 17.3 mph 35.7 mph N/A   Clear
6:53 PM 81.0 °F 33.1 °F 18% 29.42 in 10.0 mi South 24.2 mph 39.1 mph N/A   Clear
7:53 PM 79.0 °F 32.0 °F 18% 29.41 in 10.0 mi SSE 15.0 mph 25.3 mph N/A   Clear
8:53 PM 75.9 °F 34.0 °F 22% 29.42 in 10.0 mi SE 9.2 mph 21.9 mph N/A   Clear
9:53 PM 75.9 °F 36.0 °F 23% 29.42 in 10.0 mi SSE 11.5 mph - N/A   Clear
10:53 PM 73.9 °F 37.0 °F 26% 29.42 in 10.0 mi SE 12.7 mph - N/A   Clear
11:53 PM 73.9 °F 37.9 °F 27% 29.42 in 10.0 mi South 20.7 mph 34.5 mph N/A   Clear